Year,Month,Day,Hour,Minute,Value (Times are PST for temperature in C)
2015,06,18,00,00,15.60
2015,06,18,00,01,15.60
2015,06,18,00,02,15.60
2015,06,18,00,03,15.60
2015,06,18,00,04,15.60
2015,06,18,00,05,15.60
2015,06,18,00,06,15.60
2015,06,18,00,07,15.60
2015,06,18,00,08,15.60
2015,06,18,00,09,15.60
2015,06,18,00,10,15.60
2015,06,18,00,11,15.60
2015,06,18,00,12,15.60
2015,06,18,00,13,15.60
2015,06,18,00,14,15.60
2015,06,18,00,15,15.60
2015,06,18,00,16,15.50
2015,06,18,00,17,15.50
2015,06,18,00,18,15.50
2015,06,18,00,19,15.40
2015,06,18,00,20,15.40
2015,06,18,00,21,15.40
2015,06,18,00,22,15.40
2015,06,18,00,23,15.30
2015,06,18,00,24,15.30
2015,06,18,00,25,15.30
2015,06,18,00,26,15.30
2015,06,18,00,27,15.20
2015,06,18,00,28,15.20
2015,06,18,00,29,15.20
2015,06,18,00,30,15.20
2015,06,18,00,31,15.20
2015,06,18,00,32,15.10
2015,06,18,00,33,15.10
2015,06,18,00,34,15.10
2015,06,18,00,35,15.10
2015,06,18,00,36,15.10
2015,06,18,00,37,15.00
2015,06,18,00,38,15.00
2015,06,18,00,39,15.00
2015,06,18,00,40,14.90
2015,06,18,00,41,14.90
2015,06,18,00,42,14.90
2015,06,18,00,43,14.80
2015,06,18,00,44,14.80
2015,06,18,00,45,14.80
2015,06,18,00,46,14.80
2015,06,18,00,47,14.80
2015,06,18,00,48,14.80
2015,06,18,00,49,14.80
2015,06,18,00,50,14.80
2015,06,18,00,51,14.90
2015,06,18,00,52,14.90
2015,06,18,00,53,14.90
2015,06,18,00,54,15.00
2015,06,18,00,55,15.00
2015,06,18,00,56,15.10
2015,06,18,00,57,15.10
2015,06,18,00,58,15.20
2015,06,18,00,59,15.20
2015,06,18,01,00,15.20
2015,06,18,01,01,15.30
2015,06,18,01,02,15.30
2015,06,18,01,03,15.30
2015,06,18,01,04,15.30
2015,06,18,01,05,15.30
2015,06,18,01,06,15.30
2015,06,18,01,07,15.30
2015,06,18,01,08,15.30
2015,06,18,01,09,15.30
2015,06,18,01,10,15.30
2015,06,18,01,11,15.30
2015,06,18,01,12,15.30
2015,06,18,01,13,15.30
2015,06,18,01,14,15.30
2015,06,18,01,15,15.30
2015,06,18,01,16,15.30
2015,06,18,01,17,15.20
2015,06,18,01,18,15.20
2015,06,18,01,19,15.20
2015,06,18,01,20,15.20
2015,06,18,01,21,15.20
2015,06,18,01,22,15.10
2015,06,18,01,23,15.10
2015,06,18,01,24,15.10
2015,06,18,01,25,15.00
2015,06,18,01,26,14.90
2015,06,18,01,27,14.90
2015,06,18,01,28,14.90
2015,06,18,01,29,14.80
2015,06,18,01,30,14.80
2015,06,18,01,31,14.70
2015,06,18,01,32,14.70
2015,06,18,01,33,14.70
2015,06,18,01,34,14.60
2015,06,18,01,35,14.60
2015,06,18,01,36,14.60
2015,06,18,01,37,14.60
2015,06,18,01,38,14.50
2015,06,18,01,39,14.50
2015,06,18,01,40,14.50
2015,06,18,01,41,14.40
2015,06,18,01,42,14.40
2015,06,18,01,43,14.40
2015,06,18,01,44,14.40
2015,06,18,01,45,14.40
2015,06,18,01,46,14.30
2015,06,18,01,47,14.30
2015,06,18,01,48,14.30
2015,06,18,01,49,14.30
2015,06,18,01,50,14.20
2015,06,18,01,51,14.20
2015,06,18,01,52,14.20
2015,06,18,01,53,14.20
2015,06,18,01,54,14.10
2015,06,18,01,55,14.10
2015,06,18,01,56,14.10
2015,06,18,01,57,14.00
2015,06,18,01,58,14.00
2015,06,18,01,59,13.90
2015,06,18,02,00,13.90
2015,06,18,02,01,13.90
2015,06,18,02,02,13.80
2015,06,18,02,03,13.80
2015,06,18,02,04,13.80
2015,06,18,02,05,13.80
2015,06,18,02,06,13.70
2015,06,18,02,07,13.70
2015,06,18,02,08,13.70
2015,06,18,02,09,13.70
2015,06,18,02,10,13.70
2015,06,18,02,11,13.60
2015,06,18,02,12,13.60
2015,06,18,02,13,13.60
2015,06,18,02,14,13.60
2015,06,18,02,15,13.60
2015,06,18,02,16,13.60
2015,06,18,02,17,13.60
2015,06,18,02,18,13.50
2015,06,18,02,19,13.50
2015,06,18,02,20,13.50
2015,06,18,02,21,13.50
2015,06,18,02,22,13.40
2015,06,18,02,23,13.40
2015,06,18,02,24,13.40
2015,06,18,02,25,13.40
2015,06,18,02,26,13.30
2015,06,18,02,27,13.30
2015,06,18,02,28,13.30
2015,06,18,02,29,13.20
2015,06,18,02,30,13.20
2015,06,18,02,31,13.20
2015,06,18,02,32,13.10
2015,06,18,02,33,13.10
2015,06,18,02,34,13.10
2015,06,18,02,35,13.00
2015,06,18,02,36,13.00
2015,06,18,02,37,12.90
2015,06,18,02,38,12.90
2015,06,18,02,39,12.90
2015,06,18,02,40,12.90
2015,06,18,02,41,12.80
2015,06,18,02,42,12.80
2015,06,18,02,43,12.80
2015,06,18,02,44,12.80
2015,06,18,02,45,12.80
2015,06,18,02,46,12.80
2015,06,18,02,47,12.80
2015,06,18,02,48,12.80
2015,06,18,02,49,12.80
2015,06,18,02,50,12.80
2015,06,18,02,51,12.80
2015,06,18,02,52,12.80
2015,06,18,02,53,12.80
2015,06,18,02,54,12.80
2015,06,18,02,55,12.80
2015,06,18,02,56,12.70
2015,06,18,02,57,12.70
2015,06,18,02,58,12.70
2015,06,18,02,59,12.70
2015,06,18,03,00,12.70
2015,06,18,03,01,12.70
2015,06,18,03,02,12.70
2015,06,18,03,03,12.70
2015,06,18,04,02,11.60
2015,06,18,04,03,11.60
2015,06,18,04,04,11.60
2015,06,18,04,05,11.60
2015,06,18,04,06,11.60
2015,06,18,04,07,11.60
2015,06,18,04,08,11.60
2015,06,18,04,09,11.60
2015,06,18,04,10,11.50
2015,06,18,04,11,11.50
2015,06,18,04,12,11.50
2015,06,18,04,13,11.50
2015,06,18,04,14,11.50
2015,06,18,04,15,11.50
2015,06,18,04,16,11.50
2015,06,18,04,17,11.50
2015,06,18,04,18,11.50
2015,06,18,04,19,11.50
2015,06,18,04,20,11.50
2015,06,18,04,21,11.50
2015,06,18,04,22,11.40
2015,06,18,04,23,11.40
2015,06,18,04,24,11.40
2015,06,18,04,25,11.40
2015,06,18,04,26,11.40
2015,06,18,04,27,11.40
2015,06,18,04,28,11.40
2015,06,18,04,29,11.40
2015,06,18,04,30,11.40
2015,06,18,04,31,11.40
2015,06,18,04,32,11.40
2015,06,18,04,33,11.40
2015,06,18,04,34,11.50
2015,06,18,04,35,11.50
2015,06,18,04,36,11.60
2015,06,18,04,37,11.60
2015,06,18,04,38,11.70
2015,06,18,04,39,11.70
2015,06,18,04,40,11.80
2015,06,18,04,41,11.80
2015,06,18,04,42,11.90
2015,06,18,04,43,11.90
2015,06,18,04,44,11.90
2015,06,18,04,45,12.00
2015,06,18,04,46,12.10
2015,06,18,04,47,12.10
2015,06,18,04,48,12.10
2015,06,18,04,49,12.10
2015,06,18,04,50,12.10
2015,06,18,04,51,12.10
2015,06,18,04,52,12.10
2015,06,18,04,53,12.20
2015,06,18,04,54,12.20
2015,06,18,04,55,12.20
2015,06,18,04,56,12.20
2015,06,18,04,57,12.20
2015,06,18,04,58,12.20
2015,06,18,04,59,12.20
2015,06,18,05,00,12.20
2015,06,18,05,01,12.20
2015,06,18,05,02,12.20
2015,06,18,05,03,12.20
2015,06,18,05,04,12.20
2015,06,18,05,05,12.20
2015,06,18,05,06,12.20
2015,06,18,05,07,12.20
2015,06,18,05,08,12.20
2015,06,18,05,09,12.20
2015,06,18,05,10,12.20
2015,06,18,05,11,12.20
2015,06,18,05,12,12.10
2015,06,18,05,13,12.10
2015,06,18,05,14,12.10
2015,06,18,05,15,12.10
2015,06,18,05,16,12.10
2015,06,18,05,17,12.10
2015,06,18,05,18,12.10
2015,06,18,05,19,12.10
2015,06,18,05,20,12.10
2015,06,18,05,21,12.10
2015,06,18,05,22,12.10
2015,06,18,05,23,12.10
2015,06,18,05,24,12.10
2015,06,18,05,25,12.10
2015,06,18,05,26,12.10
2015,06,18,05,27,12.10
2015,06,18,05,28,12.10
2015,06,18,05,29,12.10
2015,06,18,05,30,12.10
2015,06,18,05,31,12.10
2015,06,18,05,32,12.10
2015,06,18,05,33,12.10
2015,06,18,05,34,12.10
2015,06,18,05,35,12.10
2015,06,18,05,36,12.10
2015,06,18,05,37,12.10
2015,06,18,05,38,12.10
2015,06,18,05,39,12.10
2015,06,18,05,40,12.20
2015,06,18,05,41,12.20
2015,06,18,05,42,12.20
2015,06,18,05,43,12.20
2015,06,18,05,44,12.20
2015,06,18,05,45,12.20
2015,06,18,05,46,12.20
2015,06,18,05,47,12.20
2015,06,18,05,48,12.20
2015,06,18,05,49,12.20
2015,06,18,05,50,12.20
2015,06,18,05,51,12.20
2015,06,18,05,52,12.30
2015,06,18,05,53,12.30
2015,06,18,05,54,12.30
2015,06,18,05,55,12.30
2015,06,18,05,56,12.30
2015,06,18,05,57,12.30
2015,06,18,05,58,12.30
2015,06,18,05,59,12.40
2015,06,18,06,00,12.40
2015,06,18,06,01,12.40
2015,06,18,06,02,12.40
2015,06,18,06,03,12.40
2015,06,18,06,04,12.40
2015,06,18,06,05,12.40
2015,06,18,06,06,12.40
2015,06,18,06,07,12.40
2015,06,18,06,08,12.40
2015,06,18,06,09,12.40
2015,06,18,06,10,12.40
2015,06,18,06,11,12.40
2015,06,18,06,12,12.40
2015,06,18,06,13,12.50
2015,06,18,06,14,12.50
2015,06,18,06,15,12.50
2015,06,18,06,16,12.50
2015,06,18,06,17,12.50
2015,06,18,06,18,12.50
2015,06,18,06,19,12.60
2015,06,18,06,20,12.60
2015,06,18,06,21,12.60
2015,06,18,06,22,12.60
2015,06,18,06,23,12.60
2015,06,18,06,24,12.60
2015,06,18,06,25,12.70
2015,06,18,06,26,12.70
2015,06,18,06,27,12.70
2015,06,18,06,28,12.70
2015,06,18,06,29,12.70
2015,06,18,06,30,12.70
2015,06,18,06,31,12.80
2015,06,18,06,32,12.80
2015,06,18,06,33,12.80
2015,06,18,06,34,12.80
2015,06,18,06,35,12.80
2015,06,18,06,36,12.80
2015,06,18,06,37,12.80
2015,06,18,06,38,12.80
2015,06,18,06,39,12.80
2015,06,18,06,40,12.80
2015,06,18,06,41,12.80
2015,06,18,06,42,12.80
2015,06,18,06,43,12.80
2015,06,18,06,44,12.80
2015,06,18,06,45,12.80
2015,06,18,06,46,12.80
2015,06,18,06,47,12.80
2015,06,18,06,48,12.80
2015,06,18,06,49,12.80
2015,06,18,06,50,12.80
2015,06,18,06,51,12.80
2015,06,18,06,52,12.80
2015,06,18,06,53,12.80
2015,06,18,06,54,12.80
2015,06,18,06,55,12.80
2015,06,18,06,56,12.80
2015,06,18,06,57,12.80
2015,06,18,06,58,12.80
2015,06,18,06,59,12.80
2015,06,18,07,00,12.80
2015,06,18,07,01,12.80
2015,06,18,07,02,12.80
2015,06,18,07,03,12.80
2015,06,18,07,04,12.80
2015,06,18,07,05,12.80
2015,06,18,07,06,12.70
2015,06,18,07,07,12.70
2015,06,18,07,08,12.70
2015,06,18,07,09,12.70
2015,06,18,07,10,12.70
2015,06,18,07,11,12.70
2015,06,18,07,12,12.70
2015,06,18,07,13,12.70
2015,06,18,07,14,12.70
2015,06,18,07,15,12.80
2015,06,18,07,16,12.80
2015,06,18,07,17,12.80
2015,06,18,07,18,12.80
2015,06,18,07,19,12.80
2015,06,18,07,20,12.80
2015,06,18,07,21,12.80
2015,06,18,07,22,12.80
2015,06,18,07,23,12.80
2015,06,18,07,24,12.90
2015,06,18,07,25,12.90
2015,06,18,07,26,12.90
2015,06,18,07,27,12.90
2015,06,18,07,28,12.90
2015,06,18,07,29,12.90
2015,06,18,07,30,12.90
2015,06,18,07,31,13.00
2015,06,18,07,32,13.00
2015,06,18,07,33,13.00
2015,06,18,07,34,13.00
2015,06,18,07,35,13.10
2015,06,18,07,36,13.10
2015,06,18,07,37,13.10
2015,06,18,07,38,13.10
2015,06,18,07,39,13.20
2015,06,18,07,40,13.20
2015,06,18,07,41,13.20
2015,06,18,07,42,13.20
2015,06,18,07,43,13.30
2015,06,18,07,44,13.30
2015,06,18,07,45,13.30
2015,06,18,07,46,13.30
2015,06,18,07,47,13.40
2015,06,18,07,48,13.40
2015,06,18,07,49,13.40
2015,06,18,07,50,13.50
2015,06,18,07,51,13.50
2015,06,18,07,52,13.50
2015,06,18,07,53,13.50
2015,06,18,07,54,13.60
2015,06,18,07,55,13.60
2015,06,18,07,56,13.60
2015,06,18,07,57,13.60
2015,06,18,07,58,13.70
2015,06,18,07,59,13.70
2015,06,18,08,00,13.70
2015,06,18,08,01,13.80
2015,06,18,08,02,13.80
2015,06,18,08,03,13.80
2015,06,18,08,04,13.80
2015,06,18,08,05,13.90
2015,06,18,08,06,13.90
2015,06,18,08,07,13.90
2015,06,18,08,08,13.90
2015,06,18,08,09,13.90
2015,06,18,08,10,13.90
2015,06,18,08,11,13.90
2015,06,18,08,12,13.90
2015,06,18,08,13,13.90
2015,06,18,08,14,13.90
2015,06,18,08,15,13.90
2015,06,18,08,16,13.90
2015,06,18,08,17,13.90
2015,06,18,08,18,13.90
2015,06,18,08,19,14.00
2015,06,18,08,20,14.00
2015,06,18,08,21,14.00
2015,06,18,08,22,14.00
2015,06,18,08,23,14.10
2015,06,18,08,24,14.10
2015,06,18,08,25,14.10
2015,06,18,08,26,14.10
2015,06,18,08,27,14.10
2015,06,18,08,28,14.10
2015,06,18,08,29,14.20
2015,06,18,08,30,14.20
2015,06,18,08,31,14.20
2015,06,18,08,32,14.20
2015,06,18,08,33,14.20
2015,06,18,08,34,14.10
2015,06,18,08,35,14.10
2015,06,18,08,36,14.10
2015,06,18,08,37,14.10
2015,06,18,08,38,14.10
2015,06,18,08,39,14.10
2015,06,18,08,40,14.20
2015,06,18,08,41,14.20
2015,06,18,08,42,14.20
2015,06,18,08,43,14.20
2015,06,18,08,44,14.20
2015,06,18,08,45,14.20
2015,06,18,08,46,14.20
2015,06,18,08,47,14.20
2015,06,18,08,48,14.20
2015,06,18,08,49,14.20
2015,06,18,08,50,14.20
2015,06,18,08,51,14.20
2015,06,18,08,52,14.20
2015,06,18,08,53,14.20
2015,06,18,08,54,14.20
2015,06,18,08,55,14.30
2015,06,18,08,56,14.30
2015,06,18,08,57,14.30
2015,06,18,08,58,14.30
2015,06,18,08,59,14.40
2015,06,18,09,00,14.40
2015,06,18,09,01,14.40
2015,06,18,09,02,14.40
2015,06,18,09,03,14.40
2015,06,18,09,04,14.50
2015,06,18,09,05,14.50
2015,06,18,09,06,14.60
2015,06,18,09,07,14.60
2015,06,18,09,08,14.60
2015,06,18,09,09,14.60
2015,06,18,09,10,14.60
2015,06,18,09,11,14.60
2015,06,18,09,12,14.60
2015,06,18,09,13,14.60
2015,06,18,09,14,14.60
2015,06,18,09,15,14.70
2015,06,18,09,16,14.70
2015,06,18,09,17,14.70
2015,06,18,09,18,14.70
2015,06,18,09,19,14.70
2015,06,18,09,20,14.70
2015,06,18,09,21,14.70
2015,06,18,09,22,14.80
2015,06,18,09,23,14.80
2015,06,18,09,24,14.80
2015,06,18,09,25,14.90
2015,06,18,09,26,14.90
2015,06,18,09,27,14.90
2015,06,18,09,28,14.90
2015,06,18,09,29,14.90
2015,06,18,09,30,15.00
2015,06,18,09,31,15.00
2015,06,18,09,32,15.00
2015,06,18,09,33,15.00
2015,06,18,09,34,15.00
2015,06,18,09,35,15.00
2015,06,18,09,36,15.10
2015,06,18,09,37,15.10
2015,06,18,09,38,15.10
2015,06,18,09,39,15.10
2015,06,18,09,40,15.10
2015,06,18,09,41,15.10
2015,06,18,09,42,15.10
2015,06,18,09,43,15.00
2015,06,18,09,44,15.00
2015,06,18,09,45,15.00
2015,06,18,09,46,15.00
2015,06,18,09,47,15.00
2015,06,18,09,48,15.00
2015,06,18,09,49,14.90
2015,06,18,09,50,14.90
2015,06,18,09,51,15.00
2015,06,18,09,52,15.00
2015,06,18,09,53,15.00
2015,06,18,09,54,15.00
2015,06,18,09,55,15.10
2015,06,18,09,56,15.10
2015,06,18,09,57,15.20
2015,06,18,09,58,15.20
2015,06,18,09,59,15.30
2015,06,18,10,00,15.30
2015,06,18,10,01,15.40
2015,06,18,10,02,15.40
2015,06,18,10,03,15.50
2015,06,18,10,04,15.60
2015,06,18,10,05,15.60
2015,06,18,10,06,15.70
2015,06,18,10,07,15.70
2015,06,18,10,08,15.70
2015,06,18,10,09,15.70
2015,06,18,10,10,15.70
2015,06,18,10,11,15.70
2015,06,18,10,12,15.70
2015,06,18,10,13,15.80
2015,06,18,10,14,15.80
2015,06,18,10,15,15.80
2015,06,18,10,16,15.90
2015,06,18,10,17,15.90
2015,06,18,10,18,16.00
2015,06,18,10,19,16.00
2015,06,18,10,20,16.10
2015,06,18,10,21,16.00
2015,06,18,10,22,16.00
2015,06,18,10,23,15.90
2015,06,18,10,24,15.90
2015,06,18,10,25,15.90
2015,06,18,10,26,15.90
2015,06,18,10,27,15.90
2015,06,18,10,28,15.90
2015,06,18,10,29,15.90
2015,06,18,10,30,16.00
2015,06,18,10,31,16.00
2015,06,18,10,32,16.00
2015,06,18,10,33,16.10
2015,06,18,10,34,16.10
2015,06,18,10,35,16.10
2015,06,18,10,36,16.10
2015,06,18,10,37,16.20
2015,06,18,10,38,16.20
2015,06,18,10,39,16.20
2015,06,18,10,40,16.20
2015,06,18,10,41,16.30
2015,06,18,10,42,16.30
2015,06,18,10,43,16.30
2015,06,18,10,44,16.30
2015,06,18,10,45,16.30
2015,06,18,10,46,16.30
2015,06,18,10,47,16.40
2015,06,18,10,48,16.40
2015,06,18,10,49,16.40
2015,06,18,10,50,16.50
2015,06,18,10,51,16.50
2015,06,18,10,52,16.60
2015,06,18,10,53,16.60
2015,06,18,10,54,16.60
2015,06,18,10,55,16.70
2015,06,18,10,56,16.70
2015,06,18,10,57,16.70
2015,06,18,10,58,16.80
2015,06,18,10,59,16.80
2015,06,18,11,00,16.80
2015,06,18,11,01,16.90
2015,06,18,11,02,16.90
2015,06,18,11,03,17.00
2015,06,18,11,04,17.00
2015,06,18,11,05,17.10
2015,06,18,11,06,17.10
2015,06,18,11,07,17.20
2015,06,18,11,08,17.20
2015,06,18,11,09,17.20
2015,06,18,11,10,17.30
2015,06,18,11,11,17.30
2015,06,18,11,12,17.30
2015,06,18,11,13,17.40
2015,06,18,11,14,17.40
2015,06,18,11,15,17.40
2015,06,18,11,16,17.50
2015,06,18,11,17,17.50
2015,06,18,11,18,17.60
2015,06,18,11,19,17.60
2015,06,18,11,20,17.60
2015,06,18,11,21,17.60
2015,06,18,11,22,17.60
2015,06,18,11,23,17.70
2015,06,18,11,24,17.70
2015,06,18,11,25,17.70
2015,06,18,11,26,17.70
2015,06,18,11,27,17.70
2015,06,18,11,28,17.70
2015,06,18,11,29,17.60
2015,06,18,11,30,17.60
2015,06,18,11,31,17.60
2015,06,18,11,32,17.60
2015,06,18,11,33,17.60
2015,06,18,11,34,17.60
2015,06,18,11,35,17.70
2015,06,18,11,36,17.70
2015,06,18,11,37,17.70
2015,06,18,11,38,17.70
2015,06,18,11,39,17.70
2015,06,18,11,40,17.70
2015,06,18,11,41,17.70
2015,06,18,11,42,17.60
2015,06,18,11,43,17.60
2015,06,18,11,44,17.50
2015,06,18,11,45,17.40
2015,06,18,11,46,17.40
2015,06,18,11,47,17.40
2015,06,18,11,48,17.40
2015,06,18,11,49,17.40
2015,06,18,11,50,17.40
2015,06,18,11,51,17.40
2015,06,18,11,52,17.40
2015,06,18,11,53,17.40
2015,06,18,11,54,17.40
2015,06,18,11,55,17.40
2015,06,18,11,56,17.30
2015,06,18,11,57,17.30
2015,06,18,11,58,17.30
2015,06,18,11,59,17.30
2015,06,18,12,00,17.30
2015,06,18,12,01,17.30
2015,06,18,12,02,17.30
2015,06,18,12,03,17.30
2015,06,18,12,04,17.40
2015,06,18,12,05,17.40
2015,06,18,12,06,17.40
2015,06,18,12,07,17.50
2015,06,18,12,08,17.50
2015,06,18,12,09,17.60
2015,06,18,12,10,17.70
2015,06,18,12,11,17.70
2015,06,18,12,12,17.80
2015,06,18,12,13,17.90
2015,06,18,12,14,17.90
2015,06,18,12,15,17.90
2015,06,18,12,16,18.00
2015,06,18,12,17,18.00
2015,06,18,12,18,18.00
2015,06,18,12,19,18.10
2015,06,18,12,20,18.10
2015,06,18,12,21,18.00
2015,06,18,12,22,18.00
2015,06,18,12,23,18.00
2015,06,18,12,24,18.10
2015,06,18,12,25,18.10
2015,06,18,12,26,18.10
2015,06,18,12,27,18.10
2015,06,18,12,28,18.00
2015,06,18,12,29,18.00
2015,06,18,12,30,18.00
2015,06,18,12,31,17.90
2015,06,18,12,32,17.90
2015,06,18,12,33,18.00
2015,06,18,12,34,18.10
2015,06,18,12,35,18.20
2015,06,18,12,36,18.20
2015,06,18,12,37,18.20
2015,06,18,12,38,18.20
2015,06,18,12,39,18.20
2015,06,18,12,40,18.20
2015,06,18,12,41,18.30
2015,06,18,12,42,18.30
2015,06,18,12,43,18.40
2015,06,18,12,44,18.50
2015,06,18,12,45,18.60
2015,06,18,12,46,18.60
2015,06,18,12,47,18.70
2015,06,18,12,48,18.70
2015,06,18,12,49,18.60
2015,06,18,12,50,18.50
2015,06,18,12,51,18.40
2015,06,18,12,52,18.30
2015,06,18,12,53,18.30
2015,06,18,12,54,18.20
2015,06,18,12,55,18.20
2015,06,18,12,56,18.20
2015,06,18,12,57,18.20
2015,06,18,12,58,18.30
2015,06,18,12,59,18.30
2015,06,18,13,00,18.30
2015,06,18,13,01,18.30
2015,06,18,13,02,18.20
2015,06,18,13,03,18.20
2015,06,18,13,04,18.10
2015,06,18,13,05,18.10
2015,06,18,13,06,18.10
2015,06,18,13,07,18.10
2015,06,18,13,08,18.10
2015,06,18,13,09,18.10
2015,06,18,13,10,18.10
2015,06,18,13,11,18.00
2015,06,18,13,12,18.00
2015,06,18,13,13,17.90
2015,06,18,13,14,17.90
2015,06,18,13,15,17.90
2015,06,18,13,16,17.90
2015,06,18,13,17,17.90
2015,06,18,13,18,17.90
2015,06,18,13,19,17.80
2015,06,18,13,20,17.80
2015,06,18,13,21,17.80
2015,06,18,13,22,17.90
2015,06,18,13,23,17.90
2015,06,18,13,24,17.80
2015,06,18,13,25,17.80
2015,06,18,13,26,17.80
2015,06,18,13,27,17.70
2015,06,18,13,28,17.70
2015,06,18,13,29,17.60
2015,06,18,13,30,17.60
2015,06,18,13,31,17.60
2015,06,18,13,32,17.60
2015,06,18,13,33,17.50
2015,06,18,13,34,17.50
2015,06,18,13,35,17.50
2015,06,18,13,36,17.60
2015,06,18,13,37,17.60
2015,06,18,13,38,17.70
2015,06,18,13,39,17.70
2015,06,18,13,40,17.70
2015,06,18,13,41,17.60
2015,06,18,13,42,17.60
2015,06,18,13,43,17.50
2015,06,18,13,44,17.50
2015,06,18,13,45,17.40
2015,06,18,13,46,17.40
2015,06,18,13,47,17.40
2015,06,18,13,48,17.40
2015,06,18,13,49,17.40
2015,06,18,13,50,17.40
2015,06,18,13,51,17.50
2015,06,18,13,52,17.60
2015,06,18,13,53,17.60
2015,06,18,13,54,17.60
2015,06,18,13,55,17.60
2015,06,18,13,56,17.70
2015,06,18,13,57,17.70
2015,06,18,13,58,17.80
2015,06,18,13,59,17.90
2015,06,18,14,00,18.00
2015,06,18,14,01,18.10
2015,06,18,14,02,18.10
2015,06,18,14,03,18.10
2015,06,18,14,04,18.10
2015,06,18,14,05,18.10
2015,06,18,14,06,18.00
2015,06,18,14,07,18.00
2015,06,18,14,08,17.90
2015,06,18,14,09,17.90
2015,06,18,14,10,17.80
2015,06,18,14,11,17.70
2015,06,18,14,12,17.60
2015,06,18,14,13,17.50
2015,06,18,14,14,17.40
2015,06,18,14,15,17.40
2015,06,18,14,16,17.30
2015,06,18,14,17,17.30
2015,06,18,14,18,17.30
2015,06,18,14,19,17.30
2015,06,18,14,20,17.30
2015,06,18,14,21,17.20
2015,06,18,14,22,17.20
2015,06,18,14,23,17.20
2015,06,18,14,24,17.20
2015,06,18,14,25,17.20
2015,06,18,14,26,17.20
2015,06,18,14,27,17.20
2015,06,18,14,28,17.20
2015,06,18,14,29,17.20
2015,06,18,14,30,17.20
2015,06,18,14,31,17.20
2015,06,18,14,32,17.20
2015,06,18,14,33,17.20
2015,06,18,14,34,17.20
2015,06,18,14,35,17.20
2015,06,18,14,36,17.30
2015,06,18,14,37,17.30
2015,06,18,14,38,17.30
2015,06,18,14,39,17.30
2015,06,18,14,40,17.30
2015,06,18,14,41,17.30
2015,06,18,14,42,17.40
2015,06,18,14,43,17.40
2015,06,18,14,44,17.40
2015,06,18,14,45,17.40
2015,06,18,14,46,17.40
2015,06,18,14,47,17.40
2015,06,18,14,48,17.50
2015,06,18,14,49,17.50
2015,06,18,14,50,17.50
2015,06,18,14,51,17.50
2015,06,18,14,52,17.50
2015,06,18,14,53,17.50
2015,06,18,14,54,17.40
2015,06,18,14,55,17.40
2015,06,18,14,56,17.40
2015,06,18,14,57,17.40
2015,06,18,14,58,17.40
2015,06,18,14,59,17.40
2015,06,18,15,00,17.40
2015,06,18,15,01,17.40
2015,06,18,15,02,17.40
2015,06,18,15,03,17.40
2015,06,18,15,04,17.50
2015,06,18,15,05,17.50
2015,06,18,15,06,17.50
2015,06,18,15,07,17.60
2015,06,18,15,08,17.60
2015,06,18,15,09,17.60
2015,06,18,15,10,17.60
2015,06,18,15,11,17.60
2015,06,18,15,12,17.70
2015,06,18,15,13,17.70
2015,06,18,15,14,17.70
2015,06,18,15,15,17.70
2015,06,18,15,16,17.70
2015,06,18,15,17,17.70
2015,06,18,15,18,17.70
2015,06,18,15,19,17.70
2015,06,18,15,20,17.70
2015,06,18,15,21,17.70
2015,06,18,15,22,17.70
2015,06,18,15,23,17.70
2015,06,18,15,24,17.70
2015,06,18,15,25,17.70
2015,06,18,15,26,17.70
2015,06,18,15,27,17.70
2015,06,18,15,28,17.70
2015,06,18,15,29,17.70
2015,06,18,15,30,17.70
2015,06,18,15,31,17.70
2015,06,18,15,32,17.70
2015,06,18,15,33,17.70
2015,06,18,15,34,17.60
2015,06,18,15,35,17.60
2015,06,18,15,36,17.60
2015,06,18,15,37,17.50
2015,06,18,15,38,17.50
2015,06,18,15,39,17.50
2015,06,18,15,40,17.40
2015,06,18,15,41,17.40
2015,06,18,15,42,17.40
2015,06,18,15,43,17.40
2015,06,18,15,44,17.30
2015,06,18,15,45,17.30
2015,06,18,15,46,17.30
2015,06,18,15,47,17.30
2015,06,18,15,48,17.20
2015,06,18,15,49,17.20
2015,06,18,15,50,17.20
2015,06,18,15,51,17.20
2015,06,18,15,52,17.20
2015,06,18,15,53,17.20
2015,06,18,15,54,17.10
2015,06,18,15,55,17.10
2015,06,18,15,56,17.10
2015,06,18,15,57,17.00
2015,06,18,15,58,17.00
2015,06,18,15,59,16.90
2015,06,18,16,00,17.00
2015,06,18,16,01,17.00
2015,06,18,16,02,17.00
2015,06,18,16,03,17.00
2015,06,18,16,04,17.00
2015,06,18,16,05,17.00
2015,06,18,16,06,17.00
2015,06,18,16,07,17.00
2015,06,18,16,08,17.10
2015,06,18,16,09,17.10
2015,06,18,16,10,17.10
2015,06,18,16,11,17.10
2015,06,18,16,12,17.20
2015,06,18,16,13,17.20
2015,06,18,16,14,17.30
2015,06,18,16,15,17.30
2015,06,18,16,16,17.30
2015,06,18,16,17,17.30
2015,06,18,16,18,17.30
2015,06,18,16,19,17.20
2015,06,18,16,20,17.10
2015,06,18,16,21,16.80
2015,06,18,16,22,16.70
2015,06,18,16,23,16.50
2015,06,18,16,24,16.30
2015,06,18,16,25,16.20
2015,06,18,16,26,16.10
2015,06,18,16,27,16.10
2015,06,18,16,28,16.00
2015,06,18,16,29,15.90
2015,06,18,16,30,15.90
2015,06,18,16,31,15.80
2015,06,18,16,32,15.80
2015,06,18,16,33,15.80
2015,06,18,16,34,15.70
2015,06,18,16,35,15.70
2015,06,18,16,36,15.70
2015,06,18,16,37,15.70
2015,06,18,16,38,15.70
2015,06,18,16,39,15.70
2015,06,18,16,40,15.60
2015,06,18,16,41,15.60
2015,06,18,16,42,15.60
2015,06,18,16,43,15.70
2015,06,18,16,44,15.70
2015,06,18,16,45,15.70
2015,06,18,16,46,15.70
2015,06,18,16,47,15.70
2015,06,18,16,48,15.80
2015,06,18,16,49,15.80
2015,06,18,16,50,15.90
2015,06,18,16,51,15.90
2015,06,18,16,52,16.00
2015,06,18,16,53,16.00
2015,06,18,16,54,16.00
2015,06,18,16,55,16.00
2015,06,18,16,56,16.10
2015,06,18,16,57,16.10
2015,06,18,16,58,16.10
2015,06,18,16,59,16.00
2015,06,18,17,00,16.00
2015,06,18,17,01,16.00
2015,06,18,17,02,15.90
2015,06,18,17,03,15.90
2015,06,18,17,04,15.90
2015,06,18,17,05,15.90
2015,06,18,17,06,15.80
2015,06,18,17,07,15.80
2015,06,18,17,08,15.70
2015,06,18,17,09,15.60
2015,06,18,17,10,15.50
2015,06,18,17,11,15.50
2015,06,18,17,12,15.40
2015,06,18,17,13,15.40
2015,06,18,17,14,15.30
2015,06,18,17,15,15.30
2015,06,18,17,16,15.20
2015,06,18,17,17,15.20
2015,06,18,17,18,15.10
2015,06,18,17,19,15.10
2015,06,18,17,20,15.00
2015,06,18,17,21,15.00
2015,06,18,17,22,15.00
2015,06,18,17,23,14.90
2015,06,18,17,24,14.90
2015,06,18,17,25,14.90
2015,06,18,17,26,14.90
2015,06,18,17,27,14.90
2015,06,18,17,28,14.90
2015,06,18,17,29,14.90
2015,06,18,17,30,14.90
2015,06,18,17,31,14.90
2015,06,18,17,32,14.90
2015,06,18,17,33,14.90
2015,06,18,17,34,14.90
2015,06,18,17,35,14.90
2015,06,18,17,36,14.90
2015,06,18,17,37,14.90
2015,06,18,17,38,15.00
2015,06,18,17,39,15.00
2015,06,18,17,40,15.00
2015,06,18,17,41,15.10
2015,06,18,17,42,15.10
2015,06,18,17,43,15.10
2015,06,18,17,44,15.10
2015,06,18,17,45,15.20
2015,06,18,17,46,15.20
2015,06,18,17,47,15.20
2015,06,18,17,48,15.20
2015,06,18,17,49,15.20
2015,06,18,17,50,15.20
2015,06,18,17,51,15.20
2015,06,18,17,52,15.10
2015,06,18,17,53,15.00
2015,06,18,17,54,15.00
2015,06,18,17,55,14.90
2015,06,18,17,56,14.80
2015,06,18,17,57,14.80
2015,06,18,17,58,14.80
2015,06,18,17,59,14.80
2015,06,18,18,00,14.70
2015,06,18,18,01,14.70
2015,06,18,18,02,14.70
2015,06,18,18,03,14.70
2015,06,18,18,04,14.70
2015,06,18,18,05,14.70
2015,06,18,18,06,14.70
2015,06,18,18,07,14.70
2015,06,18,18,08,14.80
2015,06,18,18,09,14.80
2015,06,18,18,10,14.80
2015,06,18,18,11,14.80
2015,06,18,18,12,14.70
2015,06,18,18,13,14.70
2015,06,18,18,14,14.70
2015,06,18,18,15,14.70
2015,06,18,18,16,14.70
2015,06,18,18,17,14.70